Terug naar catalogus

STARLINK-1506

ActiefCommunicatieVLEO
NORAD 45747·PAYLOAD·🇺🇸 United States

Gelanceerd Jun 13, 2020 vanaf Cape Canaveral Space Force Station

Loading…

Volgende Passages (komende 24 uur)

TLE

VersSource: CelesTrak SupGP

Epoch: Sep 14, 2026, 20:35 UTC

1 45747C 20038T   26257.85812500  .00047607  00000+0  15326-2 0  2570
2 45747  53.0749  43.8869 0003967 129.4444 237.9114 15.31632851    11

Volg STARLINK-1506 in realtime met AllMySat

Download on the App Store